Find Starlink 5604

NORAD ID: 55420 Int'l Des: 2023-014 Owner: SPXS Country: US Constellation: starlink operational
LEOCIRCULAR

Aktuelle Ansicht

3D-Globus wird geladen...

Über Starlink 5604

Beschreibung wird geladen...

Nächste Überflüge

Passes for default location (London). Set your location on the main map for personalized predictions.

Höhenverlauf

Loading altitude history...

Zweizeiliger Elementsatz

1 55420U 23014AF 26149.57199012 .00000221 00000-0 26294-4 0 9994
2 55420 69.9990 200.5448 0003686 270.6278 89.4459 14.98328454184660
Epoch: 29. Mai 2026 • Age: 19 hours

Aktueller Status

Höhe 575.6 km
Geschwindigkeit 7.57 km/s
Subsatellitenpunkt 24.38°N, 175.99°W
Startdatum 31. Jan. 2023
Alter 3.3 years
Typ internet

Technische Details

Klassifizierung Payload
Masse 305.00 kg
Trockenmasse 290.00 kg
Gesamtmasse 305.00 kg
Länge 0.20 m
Durchmesser 2.80 m
Spannweite 9.00 m
Form Box + pan
Hersteller SPXS
Bus-Typ Starlink
Phasenstatus In Orbit
Besitzer/Staat SPXS/US

Most Searched